SCP
2 2 2 1 1 1 1 1 0 0 0 0 0 0 0 0 0 0 0 0 0 0 0 0 0 0 0 0 0 0 0 0 0 0 0 0 0 0 0 0 0 0 0
2 2 2 2 1 1 1 1 0 0 0 0 0 0 0 0 0 0 0 0 0 0 0 0 0 0 0 0 0 0 0 0 0 0 0 0 0 0 0 0 0 0 0
2 2 2 2 2 1 1 1 1 0 0 0 0 0 0 0 0 0 0 0 0 0 0 0 0 0 0 0 0 0 0 0 0 0 0 0 0 0 0 0 0 0 0
2 2 2 2 2 1 1 1 1 0 0 0 0 0 0 0 0 0 0 0 0 0 0 0 0 0 0 0 0 0 0 0 0 0 0 0 0 0 0 0 0 0 0
2 2 2 2 2 2 2 1 1 1 1 0 0 0 0 0 0 0 0 0 0 0 0 0 0 0 0 0 0 0 0 0 0 0 0 0 0 0 0 0 0 0 0
2 2 2 2 2 2 1 1 1 1 1 1 0 0 0 0 0 0 0 0 0 0 0 0 0 0 0 0 0 0 0 0 0 0 0 0 0 0 0 0 0 0 0
2 2 2 2 2 1 1 1 1 1 1 1 0 0 0 0 0 0 0 0 0 0 0 0 0 0 0 0 0 0 0 0 0 0 0 0 0 0 0 0 0 0 0
3 3 2 2 1 1 1 1 1 1 1 0 0 0 0 0 0 0 0 0 0 0 0 0 0 0 0 0 0 0 0 0 0 0 0 0 0 0 0 0 0 0 0
4 4 3 2 2 2 1 1 1 0 0 0 0 0 0 0 0 0 0 0 0 0 0 0 0 0 0 0 0 0 0 0 0 0 0 0 0 0 0 0 0 0 0
5 4 3 2 2 1 1 1 0 0 0 0 0 0 0 0 0 0 0 0 0 0 0 0 0 0 0 0 0 0 0 0 0 0 0 0 0 0 0 0 0 0 0
5 3 2 1 1 1 1 0 0 0 0 0 0 0 0 0 0 0 0 0 0 0 0 0 0 0 0 0 0 0 0 0 0 0 0 0 0 0 0 0 0 0 0
2 2 1 1 0 0 0 0 0 0 0 0 0 0 0 0 0 0 0 0 0 0 0 0 0 0 0 0 0 0 0 0 0 0 0 0 0 0 0 0 0 0 0
1 0 0 0 0 0 0 0 0 0 0 0 0 0 0 0 0 0 0 0 0 0 0 0 0 0 0 0 0 0 0 0 0 0 0 0 0 0 0 0 0 0 0
0 0 0 0 0 0 0 0 0 0 0 0 0 0 0 0 0 0 0 0 0 0 0 0 0 0 0 0 0 0 0 0 0 0 0 0 0 0 0 0 0 0 0
0 0 0 0 0 0 0 0 0 0 0 0 0 0 0 0 0 0 0 0 0 0 0 0 0 0 0 0 0 0 0 0 0 0 0 0 0 0 0 0 0 0 0
0 0 0 0 0 0 0 0 0 0 0 0 0 0 0 0 0 0 0 0 0 0 0 0 0 0 0 0 0 0 0 0 0 0 0 0 0 0 0 0 0 0 0
0 0 0 0 0 0 0 0 0 0 0 0 0 0 0 0 0 0 0 0 0 0 0 0 0 0 0 0 0 0 0 0 0 0 0 0 0 0 0 0 0 0 0
0 0 0 0 0 0 0 0 0 0 0 0 0 0 0 0 0 0 0 0 0 0 0 0 0 0 0 0 0 0 0 0 0 0 0 0 0 0 0 0 0 0 0
0 0 0 0 0 0 0 0 0 0 0 0 0 0 0 0 0 0 0 0 0 0 0 0 0 0 0 0 0 0 0 0 0 0 0 0 0 0 0 0 0 0 0
0 0 0 0 0 0 0 0 0 0 0 0 0 0 0 0 0 0 0 0 0 0 0 0 0 0 0 0 0 0 0 0 0 0 0 0 0 0 0 0 0 0 0
0 0 0 0 0 0 0 0 0 0 0 0 0 0 0 0 0 0 0 0 0 0 0 0 0 0 0 0 0 0 0 0 0 0 0 0 0 0 0 0 0 0 0
0 0 0 0 0 0 0 0 0 0 0 0 0 0 0 0 0 0 0 0 0 0 0 0 0 0 0 0 0 0 0 0 0 0 0 0 0 0 0 0 0 0 0
0 0 0 0 0 0 0 0 0 0 0 0 0 0 0 0 0 0 0 0 0 0 0 0 0 0 0 0 0 0 0 0 0 0 0 0 0 0 0 0 0 0 0
0 0 0 0 0 0 0 0 0 0 0 0 0 0 0 0 0 0 0 0 0 0 0 0 0 0 0 0 0 0 0 0 0 0 0 0 0 0 0 0 0 0 0
0 0 0 0 0 0 0 0 0 0 0 0 0 0 0 0 0 0 0 0 0 0 0 0 0 0 0 0 0 0 0 0 0 0 0 0 0 0 0 0 0 0 0
0 0 0 0 0 0 0 0 0 0 0 0 0 0 0 0 0 0 0 0 0 0 0 0 0 0 0 0 0 0 0 0 0 0 0 0 0 0 0 0 0 0 0
Wind_Speed
8 7 7 7 6 6 6 6 6 5 6 7 7 6 5 4 4 4 3 2 3 2 2 2 2 2 1 0 0 1 1 2 3 3 2 2 1 2 2 3 4 5 6
7 6 6 6 6 6 6 6 6 5 5 6 6 6 5 5 4 5 4 3 3 3 3 2 2 2 1 1 1 1 1 2 2 3 2 2 2 2 2 3 4 5 5
6 7 6 6 7 7 6 5 6 6 5 5 5 5 4 3 3 3 4 3 3 3 3 3 2 2 2 2 2 1 1 1 2 2 2 2 2 2 1 2 3 3 4
6 6 6 6 7 6 6 6 6 6 5 5 4 4 4 3 2 2 2 2 2 2 1 1 1 1 2 2 1 2 1 1 1 1 2 2 2 2 1 2 3 2 3
7 6 6 6 6 6 6 6 6 6 5 5 5 4 3 3 2 2 2 2 2 2 2 1 1 2 1 0 0 1 1 0 1 1 1 1 2 2 2 2 2 3 3
7 6 6 6 7 7 7 8 7 7 6 6 6 6 5 4 4 4 3 3 3 3 2 2 3 5 5 5 5 4 2 1 1 1 1 2 2 2 2 2 2 2 3
6 6 6 6 7 7 8 8 8 7 7 8 7 7 6 5 6 7 7 5 5 4 4 4 4 6 6 4 5 7 7 7 4 1 1 2 2 2 2 3 2 2 4
7 7 6 7 8 8 8 9 8 8 8 8 7 7 7 7 8 8 8 7 6 6 6 5 5 5 6 5 5 5 5 6 6 3 1 2 2 2 2 2 3 3 4
8 7 7 8 9 9 9 9 9 10 9 8 7 8 8 8 10 9 8 6 7 7 6 6 6 5 8 8 6 5 6 5 7 9 7 5 5 6 3 2 3 2 3
8 8 8 8 9 10 10 9 9 10 10 9 9 8 8 8 11 11 8 5 6 5 4 5 8 7 8 8 5 5 5 5 6 7 7 8 7 7 8 3 2 2 2
10 10 10 9 10 10 10 9 10 10 10 10 10 8 8 9 10 12 10 5 4 4 4 3 4 8 9 9 6 4 4 3 4 4 4 5 5 5 6 5 3 2 1
11 11 10 10 9 9 10 10 9 9 10 9 9 8 6 7 9 11 13 11 7 5 3 2 3 7 9 9 7 7 9 6 4 4 4 5 5 5 5 5 4 3 2
12 12 11 11 10 9 9 10 8 7 7 6 6 6 5 5 6 11 12 11 10 5 3 5 7 9 9 8 10 11 8 5 4 4 4 4 3 4 4 4 5 5 5
13 11 10 11 10 10 8 6 7 6 7 6 6 5 4 4 5 5 5 5 7 6 5 7 9 10 8 8 8 7 5 4 4 3 3 3 4 4 4 4 4 4 4
12 11 10 10 10 10 9 7 6 5 6 7 5 5 5 4 3 4 4 4 3 4 4 5 6 6 6 6 5 5 5 5 5 4 3 4 4 4 4 4 3 3 3
11 9 8 8 8 8 9 9 14 10 12 12 9 7 5 5 6 8 9 10 10 10 8 6 5 5 5 4 4 4 4 4 4 3 3 3 4 4 4 4 4 3 4
10 9 7 7 7 7 7 8 7 7 10 10 10 9 8 8 10 11 11 12 12 11 7 5 4 3 3 3 3 3 3 3 3 3 3 3 4 4 4 5 5 5 5
9 9 9 7 6 6 6 6 6 6 5 3 5 7 7 9 10 11 11 9 7 6 4 3 3 2 2 3 3 3 3 3 3 3 4 4 4 4 5 5 5 6 6
7 6 6 6 6 6 5 5 5 5 4 3 3 4 5 7 9 10 8 6 4 3 3 2 2 2 2 2 3 3 3 3 3 4 4 5 5 5 5 6 6 9 7
7 10 9 7 6 6 5 5 5 5 4 3 3 2 2 4 4 4 4 3 3 3 2 2 2 2 2 2 2 2 3 3 4 4 4 5 5 5 6 7 7 7 7
5 7 10 7 6 6 5 5 5 5 4 3 2 2 6 5 4 3 3 3 2 2 2 2 1 1 1 1 2 2 2 3 3 4 4 5 5 6 6 6 7 7 7
5 5 5 6 6 5 5 5 5 5 5 4 3 4 7 5 4 3 2 2 1 1 1 2 1 1 1 1 1 1 2 3 4 5 5 6 6 6 6 6 7 7 8
6 6 6 5 6 8 7 5 5 5 4 4 4 3 3 3 3 3 2 1 1 1 1 2 2 1 1 1 1 1 1 3 4 5 5 6 6 6 6 7 8 9 9
6 6 6 6 6 6 6 5 5 5 5 4 4 3 3 3 3 2 1 1 1 2 2 2 2 2 3 2 1 1 2 3 4 4 6 6 7 6 6 7 8 9 9
6 6 6 6 6 6 5 5 5 5 4 4 4 3 3 3 3 2 1 2 2 2 3 2 2 2 2 2 2 3 5 6 6 5 5 5 6 7 7 8 8 9 9
5 6 5 5 5 5 5 5 4 4 4 4 3 3 3 3 2 2 1 2 2 2 2 1 2 2 1 2 3 5 5 7 8 8 5 4 6 6 7 7 9 8 8
Wind_Direction
182 184 179 179 179 176 177 181 177 172 165 166 167 164 165 169 166 165 176 176 190 216 223 210 240 236 247 274 126 113 146 162 209 270 272 286 267 249 230 226 229 224 231
178 176 177 173 170 171 176 175 164 159 158 160 159 161 168 173 175 177 191 192 196 214 227 222 249 243 246 253 233 233 214 190 189 254 289 305 285 256 247 240 238 232 233
169 173 172 173 169 169 168 158 149 145 141 140 143 150 154 157 164 176 184 188 189 198 204 206 233 226 252 259 246 245 248 230 185 208 265 284 291 299 293 277 267 269 263
167 172 172 172 167 160 152 144 138 133 134 135 135 142 145 143 142 151 162 171 173 168 165 167 192 191 229 247 250 258 258 276 260 240 269 285 290 305 330 291 296 292 286
165 174 175 161 150 145 141 134 127 126 129 124 117 104 98 101 94 123 141 146 148 130 102 78 63 65 59 87 287 263 250 256 302 295 286 306 311 331 313 297 284 294 288
165 168 155 145 139 137 134 128 123 118 109 102 98 93 79 65 58 79 108 106 104 100 87 62 55 42 32 37 39 44 53 47 319 287 281 282 284 292 299 305 310 327 303
139 139 139 138 136 135 134 124 119 113 103 93 91 90 81 54 59 72 84 89 81 74 70 60 49 39 32 29 39 42 35 30 26 312 296 295 302 304 313 314 300 275 267
120 121 125 124 123 122 119 116 112 104 99 94 89 87 80 59 66 75 82 82 79 71 66 68 67 40 29 32 45 39 28 20 15 16 337 307 314 307 284 275 277 291 287
111 110 111 114 114 115 114 112 109 104 97 90 83 77 75 59 59 71 80 83 76 66 62 59 58 48 31 41 50 42 29 13 18 23 23 16 5 358 355 9 360 357 320
105 103 101 105 109 110 110 106 103 103 101 94 82 72 71 64 55 64 75 83 81 70 56 48 48 46 38 45 53 47 31 360 358 8 15 13 12 11 15 22 360 346 320
104 101 97 96 100 105 105 105 106 104 100 94 88 73 65 60 54 56 65 78 87 79 59 36 23 29 37 44 52 51 26 7 9 18 17 13 13 15 15 13 11 9 335
103 99 96 95 99 100 102 102 103 105 102 97 91 77 58 49 49 51 57 63 70 77 58 27 19 34 45 47 48 39 36 38 33 31 28 19 12 4 356 355 356 355 324
99 95 92 89 87 91 99 103 101 99 101 98 93 85 63 44 40 45 50 52 54 62 45 41 53 55 51 47 45 45 44 42 40 36 24 4 347 338 343 347 351 348 340
99 94 92 91 84 77 75 84 97 102 105 101 95 91 75 50 34 25 28 36 39 44 40 46 56 57 55 49 44 41 39 40 43 35 8 349 347 354 356 352 347 345 343
100 97 93 91 93 85 75 64 79 76 111 116 111 111 99 72 27 39 51 43 42 50 60 55 50 45 44 39 34 31 28 26 26 15 12 2 356 356 347 343 342 344 338
109 106 104 103 100 100 98 77 52 70 82 90 102 106 88 87 67 60 62 67 72 77 74 64 55 49 47 41 35 22 17 15 8 8 8 1 353 349 340 335 337 332 320
116 117 115 112 111 110 109 110 98 61 63 75 83 83 82 74 65 65 71 73 69 73 73 68 62 52 43 34 27 21 8 358 2 9 3 351 344 339 333 327 325 321 313
110 116 120 122 122 120 118 118 120 119 102 61 46 63 72 69 66 65 72 73 56 52 70 75 65 53 44 32 22 17 11 7 8 4 356 346 341 334 328 323 319 317 314
106 113 117 120 123 124 120 115 110 109 108 98 60 42 55 66 64 64 69 78 79 61 57 59 60 60 48 37 29 25 22 11 360 352 345 337 332 329 323 318 314 315 314
103 114 116 117 118 117 118 118 117 116 112 105 97 89 70 70 64 52 55 72 79 72 63 60 58 69 60 44 34 28 19 4 351 342 330 325 321 318 315 314 313 312 309
99 107 110 112 116 120 122 124 127 123 118 111 102 107 117 104 100 89 76 71 78 79 75 73 70 69 59 50 42 31 15 343 330 323 317 314 313 312 309 306 307 307 307
102 99 101 106 107 109 113 115 117 115 116 114 100 92 98 95 97 92 80 67 68 76 91 99 91 75 80 87 72 34 352 330 324 322 316 311 310 308 307 307 308 310 308
101 101 96 96 100 105 102 104 110 113 114 115 114 105 96 97 99 96 86 67 54 44 49 82 95 70 50 50 51 38 335 312 304 304 307 308 309 308 306 305 306 309 310
105 107 105 102 100 101 104 104 107 112 113 109 106 106 108 110 106 98 85 53 45 38 44 64 83 93 86 57 19 349 322 308 304 296 297 296 299 301 303 304 304 305 307
103 105 106 108 110 111 109 108 109 111 110 110 110 108 108 110 106 94 68 58 61 62 62 68 73 85 81 40 355 333 326 326 321 316 300 293 292 295 299 302 304 308 309
98 103 107 111 114 117 119 119 118 119 117 117 117 116 116 116 112 97 78 79 84 79 71 65 77 95 60 353 336 336 332 329 326 324 313 297 298 302 310 308 309 312 313